www.pogodaiklimat.ru
ПОГОДА в Бриджпорте
Время
и дата
18:52 19.07
19:52 19.07
20:52 19.07
21:52 19.07
22:52 19.07
23:52 19.07
00:52 20.07
01:52 20.07
02:52 20.07
03:52 20.07
04:52 20.07
05:52 20.07
07:52 20.07
08:52 20.07
09:52 20.07
10:52 20.07
11:52 20.07
12:52 20.07
13:52 20.07
14:52 20.07
15:52 20.07
16:52 20.07
17:36 20.07
17:52 20.07
18:52 20.07
19:52 20.07
21:52 20.07
22:52 20.07
23:52 20.07
00:52 21.07
01:23 21.07
01:52 21.07
02:19 21.07
02:27 21.07
02:38 21.07
02:43 21.07
02:52 21.07
03:11 21.07
03:27 21.07
03:44 21.07
03:55 21.07
04:14 21.07
04:48 21.07
04:52 21.07
05:15 21.07
05:23 21.07
05:34 21.07
05:52 21.07
Ветер
(напр.,м/с)
Видим. Явления Облачность Т
(С)
Тd
(С)
f
(%)
Тe
(С)
Тes
(С)
Комфортность P
(гПа)
Po
(гПа)
Тmin
(С)
Tmax
(С)
R
(мм)
R24
(мм)
S
(см)
16 км 10/0 2850 m
[Ac]
+23.3 +9.4 41 +25 +25 комфорт 1017.9 801.2
16 км 8/2 1800 m
[Ac]
+21.7 +8.9 44 +23 +23 комфорт 1017.6 801.2
16 км ясно +20.6 +8.9 47 +22 +22 комфорт 1016.0 800.7
16 км 5/0 3300 m
[Ac]
+18.9 +9.4 54 +19 +19 1016.1 801.0 +18.9 +30.0
16 км ясно +17.8 +8.3 54 +18 +18 1016.5 801.0
16 км ясно +15.6 +7.8 60 +16 +16 1016.2 801.0
16 км ясно +13.9 +8.3 69 +14 +14 1016.6 801.0
16 км ясно +12.2 +7.2 71 +12 +12 1016.8 800.7
16 км ясно +11.7 +6.1 68 +11 +11 1016.7 800.7
16 км ясно +11.1 +6.1 71 +11 +11 1016.8 800.4 +10.0 +19.4
16 км ясно +8.9 +5.0 77 +8 +8 1017.7 800.7
16 км 2/0 3600 m
[Ac]
+10.6 +6.1 74 +10 +10 1018.3 801.0
16 км ясно +18.9 +8.9 52 +19 +25 1017.2 801.0
16 км ясно +24.4 +7.8 35 +25 +35 комфорт 1015.7 800.7
16 км ясно +28.3 +6.1 24 +27 +44 жарко 1014.6 800.2 +8.9 +28.3
16 км ясно +30.0 +5.6 21 +28 +50 жарко 1014.1 799.7
16 км 2/0 3000 m
[Ac]
+31.1 +5.6 20 +29 +52 опасность
солнечного
удара
1013.8 799.4
16 км 2/0 2400 m
[Ac]
+30.0 +5.6 21 +28 +52 опасность
солнечного
удара
1014.2 799.1
16 км ясно +30.0 +6.7 23 +29 +54 опасность
солнечного
удара
1014.2 798.9
16 км 10/0 3000 m
[Ac]
+27.8 +7.8 28 +27 +34 жарко 1014.7 798.9
11 км 10/0 2700 m
[Ac]
+18.9 +10.6 59 +20 +24 1018.8 800.2 +18.3 +32.8
16 км 10/0 2100 m
[Ac]
+16.7 +12.8 78 +17 +20 1021.9 801.8
3 км мгла 10/5 1500 m
[Ac]
+16.1 +12.8 81 +16 +17 801.8
10 км мгла 10/2 1500 m
[Ac]
+17.2 +13.9 81 +17 +18 1021.1 801.5
16 км 5/0 3300 m
[Ac]
+17.2 +13.9 81 +17 +18 1019.8 801.5
16 км ясно +15.0 +12.8 87 +15 +15 1019.5 801.5
16 км ясно +13.3 +10.6 84 +13 +13 1017.9 801.8 +13.3 +17.2
16 км ясно +12.2 +10.0 86 +12 +12 1017.4 801.2
16 км ясно +11.7 +9.4 86 +11 +11 1016.6 801.0
5 км дымка ясно +9.4 +8.3 93 +9 +9 1016.6 800.4
13 км 2/2 60 м +10.6 +9.4 92 +10 +10 800.2
16 км ясно +10.0 +8.3 89 +9 +9 1016.3 800.2
3 км дымка 5/5 60 м +9.4 +8.3 93 +9 +9 799.9
400 м туман ?/? +9.4 +8.3 93 +9 +9 799.9
5 км дымка 8/8 60 м +9.4 +8.9 97 +8 +8 799.9
2 км дымка 8/8 60 м +8.9 +8.3 96 +8 +8 799.9
400 м туман ?/? +8.9 +8.3 96 +8 +8 1016.8 799.9
2 км дымка 8/8 60 м +9.4 +8.9 97 +8 +8 799.9
5 км дымка 2/2 60 м +9.4 +8.3 93 +9 +9 799.7
1 км дымка ?/? +8.3 +7.8 97 +7 +7 799.7
2 км дымка 5/5 60 м +8.3 +7.8 97 +7 +7 799.7
6 км дымка 2/2 60 м +8.3 +7.8 97 +7 +7 799.7
1 км дымка ?/? +8.0 +7.0 93 +7 +7 799.7
800 м туман ?/? +7.8 +7.2 96 +7 +7 1019.5 799.7
2 км дымка 10/10 60 м +8.3 +7.2 93 +7 +7 799.7
5 км дымка 8/8 60 м +8.3 +7.2 93 +7 +7 799.7
14 км 5/5 60 м +8.3 +7.8 97 +7 +7 799.7
10 км дымка ясно +8.9 +8.3 96 +8 +8 1019.1 799.9
Местоположение метеостанции MCMWTC: широта 38.3557 долгота -119.5188 высота над уровнем моря 2057 м.
В архиве по умолчанию представлена погода в Бриджпорте за последние 1-2 суток. Обновление информации о фактической погоде в базе происходит ежечасно! Архивные данные за месяц целиком и за предыдущие месяцы Вы можете получить, выбрав интересующий диапазон дат из раскрывающегося списка и нажав кнопку "Ввод!".
Внимание! Архив погоды МЕТАР в базе сайта по станциям, не включенным в климатический монитор, хранится не более 60 дней. Нет смысла пытаться выбрать более раннюю дату.
*Определитесь, кто Вы:
Внимание! Время в таблицах - местное (без учета летнего времени). Для получения всемирного времени необходимо вычесть поправку, которая равна -8 ч.
Смотрите также архив погоды в соседних городах и на ближайших метеорологических станциях:
Партнеры нашего сайта:      
Пояснения к столбцам:
  • Ветер - указаны скорость ветра в м/с - средняя за 10 мин, порывы в срок и между сроками (в фигурных скобках) и направление, откуда дует ветер: С - северный,
  • СВ - северо-восточный, В - восточный, ЮВ - юго-восточный, Ю - южный, ЮЗ - юго-западный, З - западный, СЗ - северо-западный.
  • Видимость - горизонтальная дальность видимости в метрах или километрах. При видимости от 1 до 10 км при отсутствии осадков обычно наблюдается дымка, при ухудшении видимости до 1 км и менее - туман. В сухую погоду видимость может ухудшаться дымом, пылью или мглою.
  • Явления - указаны атмосферные явления, наблюдавшиеся в срок или в последний час перед сроком; фигурными скобками обозначены явления, наблюдавшиеся между сроками (за 1-3 часа до срока); квадратными скобками обозначены град или гололедные отложения с указанием их диаметра в мм.
  • Облачность - указаны через наклонную черту общая и нижняя облачность в баллах и высота нижней границы облаков в метрах; квадратными скобками обозначены формы облаков: Ci - перистые, Cs - перисто-слоистые, Cc - перисто-кучевые, Ac - высококучевые, As - высокослоистые, Sc - слоисто-кучевые, Ns - слоисто-дождевые, Cu - кучевые, Cb - кучево-дождевые. Подробнее классификацию облаков см. в Атласе облаков (PDF).
  • T - Температура воздуха - температура, измеренная на высоте 2 м над землей.
  • Td - Температура точки росы - температура, при понижении до которой содержащийся в воздухе водяной пар достигнет насыщения.
  • f - Относительная влажность воздуха - влажноcть воздуха, измеренная на высоте 2 м над землей.
  • Te - Эффективная температура - температура, которую ощущает одетый по сезону человек в тени. Характеристика душности погоды. При расчете учитывается влияние влажности воздуха и скорости ветра на теплоощущения человека.
  • Tes - Эффективная температура на солнце - температура, которую ощущает человек, с поправкой на солнечный нагрев. Характеристика знойности погоды. Зависит от высоты солнца над горизонтом, облачности и скорости ветра. Ночью, в пасмурную погоду, а также при ветре 12 м/с и более поправка равна нулю.
  • P - Атмосферное давление - приведенное к уровню моря атмосферное давление.
  • Po - Атмосферное давление - измеренное на уровне метеостанции атмосферное давление.
  • Tmin - Минимальная температура - минимум температуры воздуха на высоте 2 м над землей.
  • Tmax - Максимальная температура - максимум температуры воздуха на высоте 2 м над землей.
  • R - Количество осадков - Количество выпавших осадков за период времени, мм. При наведении курсора мыши на число - период времени, за который выпало указанное количество осадков.
  • R24 - Количество осадков - Количество выпавших осадков за 24 часа, мм.
  • S - Снежный покров - Высота снежного покрова, см. При наведении курсора мыши на число - состояние снежного покрова и степень покрытия местности в баллах.